Find Starlink 31863

NORAD ID: 59789 Int'l Des: 2024-093 Owner: SPXS Country: US Constellation: starlink operational
LEOCIRCULAR

Current View

Loading 3D Globe...

About Starlink 31863

Starlink 31863 (NORAD 59789) is a starlink constellation satellite (v2 mini) launched May 18, 2024 by SPXS of US. It operates in LEO, CIRCULAR orbit with a mass of 730.00 kg.

About Starlink 31863

Description loading...

Upcoming Passes

Passes for default location (London). Set your location on the main map for personalized predictions.

Altitude History

Loading altitude history...

Two-Line Element Set

1 59789U 24093H 26175.82495926 .00000571 00000-0 30266-4 0 9996
2 59789 43.0014 323.5752 0001137 273.2547 86.8174 15.27578434119080
Epoch: Jun 24, 2026 • Age: 22 hours

Current Status

Altitude 489.1 km
Velocity 7.62 km/s
Sub-Earth Point -26.46°S, 108.63°E
Launch Date May 18, 2024
Age 2.1 years
Type internet

Technical Details

Classification Payload
Mass 730.00 kg
Dry Mass 700.00 kg
Total Mass 730.00 kg
Length 0.30 m
Diameter 4.10 m
Span 29.00 m
Shape Box + pan
Manufacturer SPXS
Bus Type Starlink V2M
Phase Status In Orbit
Owner/State SPXS/US

Most Searched